Tracking 19796 objects as of 19-Jul-2019
HD Live streaming from Space Station
objects crossing your sky now

COSMOS 1275 DEB

Track COSMOS 1275 DEB now!
10-day predictions


NORAD ID: 14441
Int'l Code: 1981-053JL
Perigee: 862.4 km
Apogee: 926.6 km
Inclination: 83.1 °
Period: 102.7 minutes
Semi major axis: 7265 km
RCS: 0.0079 m2 (small)
Launch date: June 4, 1981
Source: Commonwealth of Independent States (former USSR) (CIS)
Launch site: PLESETSK MISSILE AND SPACE COMPLEX (PKMTR)

Note: This is SATELLITE DEBRIS
aabbcc
Your satellite tracking list
Your tracking list is empty




NASA's NSSDC Master Catalog

Two Line Element Set (TLE):
1 14441U 81053JH  19199.82900514  .00000326  00000-0  20182-3 0  9996
2 14441  83.1203  34.2636 0044216 198.5186 161.4379 14.01861681918591
Source of the keplerian elements: AFSPC